Time,TemperatureF,DewpointF,PressureIn,WindDirection,WindDirectionDegrees,WindSpeedMPH,WindSpeedGustMPH,Humidity,HourlyPrecipIn,Conditions,Clouds,dailyrainin,SoftwareType,DateUTC
2013-09-17 00:06:00,58.6,55.0,30.18,North,360,0.0,0.0,86,0.00,,,0.00,weatherlink.com 1.10,2013-09-17 04:06:00,
2013-09-17 00:21:00,59.5,54.0,30.19,North,11,0.0,2.0,81,0.00,,,0.00,weatherlink.com 1.10,2013-09-17 04:21:00,
2013-09-17 00:36:00,60.3,54.0,30.19,North,9,0.0,3.0,79,0.00,,,0.00,weatherlink.com 1.10,2013-09-17 04:36:00,
2013-09-17 00:51:00,61.0,53.0,30.20,North,10,0.0,3.0,76,0.00,,,0.00,weatherlink.com 1.10,2013-09-17 04:51:00,
2013-09-17 01:06:00,61.0,53.0,30.20,North,9,0.0,2.0,76,0.00,,,0.00,weatherlink.com 1.10,2013-09-17 05:06:00,
2013-09-17 01:21:00,60.5,53.0,30.20,North,359,0.0,2.0,77,0.00,,,0.00,weatherlink.com 1.10,2013-09-17 05:21:00,
2013-09-17 01:36:00,60.2,53.0,30.21,NNW,343,0.0,3.0,77,0.00,,,0.00,weatherlink.com 1.10,2013-09-17 05:36:00,
2013-09-17 01:51:00,60.2,53.0,30.21,North,10,1.0,3.0,78,0.00,,,0.00,weatherlink.com 1.10,2013-09-17 05:51:00,
2013-09-17 02:06:00,60.2,53.0,30.21,NNE,13,0.0,2.0,77,0.00,,,0.00,weatherlink.com 1.10,2013-09-17 06:06:00,
2013-09-17 02:21:00,60.0,53.0,30.21,North,9,2.0,3.0,77,0.00,,,0.00,weatherlink.com 1.10,2013-09-17 06:21:00,
2013-09-17 02:36:00,59.8,52.0,30.22,North,350,1.0,8.0,76,0.00,,,0.00,weatherlink.com 1.10,2013-09-17 06:36:00,
2013-09-17 02:51:00,59.1,52.0,30.22,NNE,15,0.0,4.0,77,0.00,,,0.00,weatherlink.com 1.10,2013-09-17 06:51:00,
2013-09-17 03:06:00,58.4,52.0,30.23,North,4,1.0,4.0,78,0.00,,,0.00,weatherlink.com 1.10,2013-09-17 07:06:00,
2013-09-17 03:21:00,58.1,51.0,30.23,North,11,0.0,3.0,78,0.00,,,0.00,weatherlink.com 1.10,2013-09-17 07:21:00,
2013-09-17 03:36:00,57.8,51.0,30.23,SSW,211,1.0,5.0,78,0.00,,,0.00,weatherlink.com 1.10,2013-09-17 07:36:00,
2013-09-17 03:51:00,57.5,51.0,30.24,SW,236,0.0,4.0,78,0.00,,,0.00,weatherlink.com 1.10,2013-09-17 07:51:00,
2013-09-17 04:06:00,57.2,50.0,30.24,NNW,342,0.0,8.0,78,0.00,,,0.00,weatherlink.com 1.10,2013-09-17 08:06:00,
2013-09-17 04:21:00,56.7,50.0,30.25,North,7,0.0,5.0,79,0.00,,,0.00,weatherlink.com 1.10,2013-09-17 08:21:00,
2013-09-17 04:36:00,56.0,49.0,30.25,North,353,1.0,7.0,78,0.00,,,0.00,weatherlink.com 1.10,2013-09-17 08:36:00,
2013-09-17 04:51:00,55.4,48.0,30.26,North,359,2.0,4.0,77,0.00,,,0.00,weatherlink.com 1.10,2013-09-17 08:51:00,
2013-09-17 05:06:00,54.7,48.0,30.27,North,9,1.0,3.0,78,0.00,,,0.00,weatherlink.com 1.10,2013-09-17 09:06:00,
2013-09-17 05:21:00,54.1,47.0,30.27,NNW,345,2.0,3.0,78,0.00,,,0.00,weatherlink.com 1.10,2013-09-17 09:21:00,
2013-09-17 05:37:00,53.6,47.0,30.28,NNE,20,1.0,4.0,77,0.00,,,0.00,weatherlink.com 1.10,2013-09-17 09:37:00,
2013-09-17 05:52:00,53.1,46.0,30.29,North,352,2.0,6.0,78,0.00,,,0.00,weatherlink.com 1.10,2013-09-17 09:52:00,
2013-09-17 06:07:00,52.5,45.0,30.30,North,356,3.0,5.0,75,0.00,,,0.00,weatherlink.com 1.10,2013-09-17 10:07:00,
2013-09-17 06:22:00,52.1,44.0,30.30,WSW,255,0.0,7.0,73,0.00,,,0.00,weatherlink.com 1.10,2013-09-17 10:22:00,
2013-09-17 06:37:00,51.6,43.0,30.30,North,359,1.0,5.0,73,0.00,,,0.00,weatherlink.com 1.10,2013-09-17 10:37:00,
2013-09-17 06:52:00,51.2,43.0,30.31,WNW,288,0.0,4.0,74,0.00,,,0.00,weatherlink.com 1.10,2013-09-17 10:52:00,
2013-09-17 07:07:00,50.8,43.0,30.32,North,3,2.0,4.0,74,0.00,,,0.00,weatherlink.com 1.10,2013-09-17 11:07:00,
2013-09-17 07:22:00,50.6,43.0,30.33,North,2,0.0,3.0,74,0.00,,,0.00,weatherlink.com 1.10,2013-09-17 11:22:00,
2013-09-17 07:37:00,50.5,43.0,30.33,North,1,2.0,5.0,74,0.00,,,0.00,weatherlink.com 1.10,2013-09-17 11:37:00,
2013-09-17 07:52:00,50.8,43.0,30.34,NNW,332,1.0,4.0,74,0.00,,,0.00,weatherlink.com 1.10,2013-09-17 11:52:00,
2013-09-17 08:07:00,51.1,43.0,30.34,NNE,17,1.0,5.0,74,0.00,,,0.00,weatherlink.com 1.10,2013-09-17 12:07:00,
2013-09-17 08:26:00,51.4,43.0,30.35,North,360,2.0,4.0,74,0.00,,,0.00,weatherlink.com 1.10,2013-09-17 12:26:00,
2013-09-17 08:37:00,51.9,44.0,30.35,NW,321,2.0,7.0,74,0.00,,,0.00,weatherlink.com 1.10,2013-09-17 12:37:00,
2013-09-17 08:52:00,52.5,44.0,30.36,NNW,338,1.0,4.0,74,0.00,,,0.00,weatherlink.com 1.10,2013-09-17 12:52:00,
2013-09-17 09:07:00,53.7,45.0,30.36,NW,326,1.0,6.0,73,0.00,,,0.00,weatherlink.com 1.10,2013-09-17 13:07:00,
2013-09-17 09:22:00,54.3,45.0,30.36,North,359,1.0,9.0,71,0.00,,,0.00,weatherlink.com 1.10,2013-09-17 13:22:00,
2013-09-17 09:38:00,54.6,45.0,30.37,North,355,5.0,5.0,70,0.00,,,0.00,weatherlink.com 1.10,2013-09-17 13:38:00,
2013-09-17 09:53:00,55.3,44.0,30.37,NNE,12,2.0,7.0,66,0.00,,,0.00,weatherlink.com 1.10,2013-09-17 13:53:00,
2013-09-17 10:08:00,55.4,44.0,30.37,North,7,3.0,7.0,65,0.00,,,0.00,weatherlink.com 1.10,2013-09-17 14:08:00,
2013-09-17 10:23:00,56.0,44.0,30.37,North,352,4.0,9.0,65,0.00,,,0.00,weatherlink.com 1.10,2013-09-17 14:23:00,
2013-09-17 10:38:00,57.1,44.0,30.37,North,7,0.0,4.0,61,0.00,,,0.00,weatherlink.com 1.10,2013-09-17 14:38:00,
2013-09-17 10:53:00,57.8,44.0,30.37,WSW,244,2.0,8.0,60,0.00,,,0.00,weatherlink.com 1.10,2013-09-17 14:53:00,
2013-09-17 11:08:00,58.5,44.0,30.37,North,357,0.0,8.0,59,0.00,,,0.00,weatherlink.com 1.10,2013-09-17 15:08:00,
2013-09-17 11:23:00,59.5,43.0,30.37,WNW,302,1.0,5.0,55,0.00,,,0.00,weatherlink.com 1.10,2013-09-17 15:23:00,
2013-09-17 11:38:00,59.8,42.0,30.38,NNW,344,0.0,4.0,53,0.00,,,0.00,weatherlink.com 1.10,2013-09-17 15:38:00,
2013-09-17 11:53:00,60.2,42.0,30.37,NNW,340,0.0,4.0,52,0.00,,,0.00,weatherlink.com 1.10,2013-09-17 15:53:00,
2013-09-17 12:08:00,61.7,44.0,30.37,North,11,2.0,5.0,52,0.00,,,0.00,weatherlink.com 1.10,2013-09-17 16:08:00,
2013-09-17 12:23:00,62.0,42.0,30.37,NW,319,2.0,8.0,49,0.00,,,0.00,weatherlink.com 1.10,2013-09-17 16:23:00,
2013-09-17 12:38:00,62.7,43.0,30.36,NNW,333,0.0,10.0,49,0.00,,,0.00,weatherlink.com 1.10,2013-09-17 16:38:00,
2013-09-17 12:53:00,63.6,41.0,30.36,NE,38,1.0,6.0,43,0.00,,,0.00,weatherlink.com 1.10,2013-09-17 16:53:00,
2013-09-17 13:08:00,64.7,42.0,30.36,NNW,333,0.0,5.0,44,0.00,,,0.00,weatherlink.com 1.10,2013-09-17 17:08:00,
2013-09-17 13:23:00,64.5,42.0,30.35,SSW,203,1.0,5.0,44,0.00,,,0.00,weatherlink.com 1.10,2013-09-17 17:23:00,
2013-09-17 13:38:00,66.2,40.0,30.34,WNW,294,1.0,5.0,39,0.00,,,0.00,weatherlink.com 1.10,2013-09-17 17:38:00,
2013-09-17 13:53:00,66.4,42.0,30.34,North,352,0.0,4.0,41,0.00,,,0.00,weatherlink.com 1.10,2013-09-17 17:53:00,
2013-09-17 14:08:00,66.7,41.0,30.33,North,351,2.0,6.0,39,0.00,,,0.00,weatherlink.com 1.10,2013-09-17 18:08:00,
2013-09-17 14:23:00,67.5,40.0,30.32,NNE,15,1.0,4.0,37,0.00,,,0.00,weatherlink.com 1.10,2013-09-17 18:23:00,
2013-09-17 14:38:00,68.0,40.0,30.31,North,3,0.0,5.0,36,0.00,,,0.00,weatherlink.com 1.10,2013-09-17 18:38:00,
2013-09-17 14:53:00,67.7,42.0,30.31,SW,223,1.0,3.0,39,0.00,,,0.00,weatherlink.com 1.10,2013-09-17 18:53:00,
2013-09-17 15:08:00,69.1,44.0,30.30,NNW,346,0.0,3.0,41,0.00,,,0.00,weatherlink.com 1.10,2013-09-17 19:08:00,
2013-09-17 15:23:00,68.7,42.0,30.30,NNE,19,0.0,7.0,38,0.00,,,0.00,weatherlink.com 1.10,2013-09-17 19:23:00,
2013-09-17 15:38:00,68.0,43.0,30.29,SW,218,0.0,5.0,40,0.00,,,0.00,weatherlink.com 1.10,2013-09-17 19:38:00,
2013-09-17 15:53:00,69.4,43.0,30.29,North,350,0.0,4.0,38,0.00,,,0.00,weatherlink.com 1.10,2013-09-17 19:53:00,
2013-09-17 16:08:00,69.3,44.0,30.29,North,3,2.0,3.0,40,0.00,,,0.00,weatherlink.com 1.10,2013-09-17 20:08:00,
2013-09-17 16:23:00,68.8,45.0,30.28,SW,224,2.0,6.0,42,0.00,,,0.00,weatherlink.com 1.10,2013-09-17 20:23:00,
2013-09-17 16:38:00,67.8,44.0,30.28,SSW,213,0.0,7.0,43,0.00,,,0.00,weatherlink.com 1.10,2013-09-17 20:38:00,
2013-09-17 16:53:00,68.0,45.0,30.28,NNW,348,2.0,3.0,44,0.00,,,0.00,weatherlink.com 1.10,2013-09-17 20:53:00,
2013-09-17 17:08:00,68.2,46.0,30.27,SW,216,1.0,4.0,45,0.00,,,0.00,weatherlink.com 1.10,2013-09-17 21:08:00,
2013-09-17 17:23:00,67.4,45.0,30.27,NW,325,0.0,3.0,44,0.00,,,0.00,weatherlink.com 1.10,2013-09-17 21:23:00,
2013-09-17 17:38:00,66.6,43.0,30.28,NW,317,1.0,4.0,42,0.00,,,0.00,weatherlink.com 1.10,2013-09-17 21:38:00,
2013-09-17 17:53:00,65.6,42.0,30.28,NNW,344,1.0,2.0,43,0.00,,,0.00,weatherlink.com 1.10,2013-09-17 21:53:00,
2013-09-17 18:08:00,64.9,43.0,30.28,SSW,211,0.0,5.0,45,0.00,,,0.00,weatherlink.com 1.10,2013-09-17 22:08:00,
2013-09-17 18:23:00,64.3,44.0,30.28,SSW,213,3.0,3.0,48,0.00,,,0.00,weatherlink.com 1.10,2013-09-17 22:23:00,
2013-09-17 18:38:00,63.6,44.0,30.27,SSW,207,0.0,3.0,50,0.00,,,0.00,weatherlink.com 1.10,2013-09-17 22:38:00,
2013-09-17 18:53:00,62.2,45.0,30.27,SSW,207,1.0,3.0,54,0.00,,,0.00,weatherlink.com 1.10,2013-09-17 22:53:00,
2013-09-17 19:08:00,61.3,46.0,30.28,SSW,207,0.0,2.0,57,0.00,,,0.00,weatherlink.com 1.10,2013-09-17 23:08:00,
2013-09-17 19:23:00,59.4,46.0,30.28,SSW,207,0.0,1.0,62,0.00,,,0.00,weatherlink.com 1.10,2013-09-17 23:23:00,
2013-09-17 19:38:00,58.5,47.0,30.28,SSW,207,0.0,1.0,65,0.00,,,0.00,weatherlink.com 1.10,2013-09-17 23:38:00,
2013-09-17 19:53:00,57.6,47.0,30.28,SSW,207,0.0,1.0,68,0.00,,,0.00,weatherlink.com 1.10,2013-09-17 23:53:00,
2013-09-17 20:08:00,56.6,47.0,30.28,SSW,207,0.0,0.0,71,0.00,,,0.00,weatherlink.com 1.10,2013-09-18 00:08:00,
2013-09-17 20:23:00,56.5,48.0,30.28,SSW,207,0.0,1.0,72,0.00,,,0.00,weatherlink.com 1.10,2013-09-18 00:23:00,
2013-09-17 20:38:00,56.1,48.0,30.29,SSW,207,0.0,0.0,75,0.00,,,0.00,weatherlink.com 1.10,2013-09-18 00:38:00,
2013-09-17 20:53:00,55.3,48.0,30.29,SSW,207,0.0,1.0,76,0.00,,,0.00,weatherlink.com 1.10,2013-09-18 00:53:00,
2013-09-17 21:08:00,54.5,48.0,30.29,SSW,207,0.0,1.0,78,0.00,,,0.00,weatherlink.com 1.10,2013-09-18 01:08:00,
2013-09-17 21:23:00,54.1,48.0,30.29,SSW,207,1.0,1.0,80,0.00,,,0.00,weatherlink.com 1.10,2013-09-18 01:23:00,
2013-09-17 21:38:00,53.4,48.0,30.29,SSW,207,0.0,1.0,81,0.00,,,0.00,weatherlink.com 1.10,2013-09-18 01:38:00,
2013-09-17 21:53:00,52.8,48.0,30.30,SSW,207,0.0,0.0,83,0.00,,,0.00,weatherlink.com 1.10,2013-09-18 01:53:00,
2013-09-17 22:08:00,52.8,48.0,30.30,SSW,207,0.0,0.0,83,0.00,,,0.00,weatherlink.com 1.10,2013-09-18 02:08:00,
2013-09-17 22:23:00,52.3,48.0,30.30,SSW,207,0.0,2.0,86,0.00,,,0.00,weatherlink.com 1.10,2013-09-18 02:23:00,
2013-09-17 22:39:00,51.8,48.0,30.30,SSW,207,0.0,0.0,86,0.00,,,0.00,weatherlink.com 1.10,2013-09-18 02:39:00,
2013-09-17 22:54:00,51.9,48.0,30.30,SSW,207,0.0,0.0,86,0.00,,,0.00,weatherlink.com 1.10,2013-09-18 02:54:00,
2013-09-17 23:09:00,51.2,48.0,30.30,SSW,207,0.0,0.0,87,0.00,,,0.00,weatherlink.com 1.10,2013-09-18 03:09:00,
2013-09-17 23:24:00,51.1,47.0,30.30,SSW,207,0.0,0.0,87,0.00,,,0.00,weatherlink.com 1.10,2013-09-18 03:24:00,
2013-09-17 23:39:00,50.3,47.0,30.30,SSW,207,0.0,0.0,87,0.00,,,0.00,weatherlink.com 1.10,2013-09-18 03:39:00,
2013-09-17 23:54:00,49.5,46.0,30.30,SSW,207,0.0,0.0,89,0.00,,,0.00,weatherlink.com 1.10,2013-09-18 03:54:00,